Regional Weather Roundup
Issued by NWS

Home | Current Version | Previous Version | Text Only | Print | Product List | Glossary On
Versions: 1 2 3 4 5 6 7 8 9 10 11 12 13 14 15 16 17 18 19 20 21 22 23 24 25 26 27 28 29 30 31 32 33 34 35 36 37 38 39 40 41 42 43 44 45 46 47 48 49 50
000
ASUS43 KMKX 271428
RWRWI

WISCONSIN REGIONAL WEATHER ROUNDUP
NATIONAL WEATHER SERVICE MILWAUKEE/SULLIVAN WI
900 AM CDT WED MAY 27 2015

NOTE: "FAIR" INDICATES FEW OR NO CLOUDS BELOW 12,000 FEET WITH NO
SIGNIFICANT WEATHER AND/OR OBSTRUCTIONS TO VISIBILITY.

WIZ001-002-006>008-014>016-023>028-271500-
NORTHWEST WISCONSIN

CITY           SKY/WX    TMP DP  RH WIND       PRES   REMARKS
SUPERIOR ARPT  MOSUNNY   61  55  79 SW10      29.84R
ASHLAND        CLOUDY    62  55  77 SW10      29.83S
HAYWARD        PTSUNNY   60  54  80 SW6       29.89R
SIREN          MOSUNNY   63  55  76 SW8       29.90R
CUMBERLAND     MOSUNNY   61  54  77 SW9       29.91S
RICE LAKE      MOSUNNY   60  55  81 SW5       29.93R
CHETEK         MOSUNNY   59  56  89 SW6       29.92R
LADYSMITH      CLOUDY    57  55  94 SW7       29.93R
EAU CLAIRE     MOSUNNY   61  56  83 SW7       29.92S
MENOMONIE      MOSUNNY   62  59  90 SW6       29.93R
NEW RICHMOND   MOSUNNY   62  58  86 SW7       29.93S
OSCEOLA        MOSUNNY   63  60  91 SW7       29.94S
$$

WIZ003>005-009-010-017-018-271500-
NORTH CENTRAL WISCONSIN

CITY           SKY/WX    TMP DP  RH WIND       PRES   REMARKS
MANITOWISH WTR CLOUDY    58  56  96 W7        29.86R
ARBOR VITAE    CLOUDY    57  55  95 W3        29.87R
WOODRUFF       CLOUDY    57  55  95 W3        29.87R
RHINELANDER    LGT RAIN  54  53  97 W8        29.88R
EAGLE RIVER    CLOUDY    55  55  99 W5        29.85R
LAND O LAKES   CLOUDY    56  55  95 CALM      29.86R
PHILLIPS       CLOUDY    56  54  94 SW8       29.89R
TOMAHAWK       DRIZZLE   55  53  95 W3        29.90R
MEDFORD        RAIN      55  54  97 W6        29.93R
MERRILL        DRIZZLE   56  56 100 W6        29.90R
$$

WIZ029-030-035-036-043>047-271500-
CENTRAL WISCONSIN

CITY           SKY/WX    TMP DP  RH WIND       PRES   REMARKS
WAUSAU         LGT RAIN  56  55  97 W7        29.89R
MOSINEE        LGT RAIN  55  55 100 W6          N/A
MARSHFIELD     RAIN      58  54  86 W7        29.92R FOG
STEVENS POINT  LGT RAIN  56  54  94 W8        29.91R
WAUPACA        DRIZZLE   61  57  86 W8        29.90R
WAUTOMA        CLOUDY    61  57  86 NW13      29.91R
WISC RAPIDS    LGT RAIN  59  55  87 NW8       29.93R
CAMP DOUGLAS   PTSUNNY   63  57  82 W8        29.95R
$$

WIZ011>013-019>022-031-037>040-048>050-271500-
NORTHEAST WISCONSIN

CITY           SKY/WX    TMP DP  RH WIND       PRES   REMARKS
ANTIGO         LGT RAIN  55  54  98 NW8       29.88R
SHAWANO        LGT RAIN  58  56  92 W8        29.86R
OCONTO         CLOUDY    57  57 100 NW6       29.82R
STURGEON BAY   CLOUDY    57  54  88 W9        29.84R
GREEN BAY      CLOUDY    61  56  83 W13       29.85R
MANITOWOC      CLOUDY    63  57  81 W13       29.85R
APPLETON       PTSUNNY   61  54  77 W15G21    29.87R
CLINTONVILLE   RAIN      57  55  94 W10       29.86R
OSHKOSH        CLOUDY    64  55  72 W12G21    29.87R
$$

WIZ032>034-041-042-053>061-271500-
SOUTHWEST WISCONSIN

CITY           SKY/WX    TMP DP  RH WIND       PRES   REMARKS
LA CROSSE      PTSUNNY   64  57  78 N6        29.95R
SPARTA         CLOUDY    61  56  83 W5        29.95R
VIROQUA        PTSUNNY   59  59 100 NW7       29.95S
BOSCOBEL       CLOUDY    64  57  78 W7        29.95R
PRAIRIE DU CHI PTSUNNY   64  56  76 W10       29.95S
PLATTEVILLE    CLOUDY    61  59  93 W12       29.97R
$$

WIZ056-057-062-063-064-067-068-271500-
SOUTH CENTRAL WISCONSIN

CITY           SKY/WX    TMP DP  RH WIND       PRES   REMARKS
REEDSBURG      CLOUDY    59  57  92 NW10      29.92S
BARABOO/DELLS  CLOUDY    60  56  89 NW9       29.92R
LONE ROCK      CLOUDY    61  57  87 NW12      29.94R
MINERAL POINT  CLOUDY    61  59  94 W15       29.95R
MADISON        LGT RAIN  62  57  83 W10       29.92R
MIDDLETON      CLOUDY    63  59  88 W12       29.92R
WATERTOWN      CLOUDY   N/A N/A N/A SW10      29.90R
MONROE         CLOUDY    61  57  88 W13G20    29.95R
JANESVILLE     PTSUNNY   64  61  88 W13       29.93R
$$

WIZ051-052-058>065-066-070>072-271500-
SOUTHEAST WISCONSIN

CITY           SKY/WX    TMP DP  RH WIND       PRES   REMARKS
MILWAUKEE      PTSUNNY   65  58  78 SW13      29.91R
WAUKESHA       PTSUNNY   61  57  88 W9        29.92R
MILWAUKEE/TIMM CLOUDY    64  55  72 SW12      29.90R
RACINE         LGT RAIN  66  59  78 W10       29.92R
BURLINGTON     HVY RAIN  60  59  95 SW10G16   29.92R
KENOSHA        PTSUNNY   67  61  81 SW15      29.91R
FOND DU LAC    CLOUDY    63  56  78 W12G22    29.87R
SHEBOYGAN      PTSUNNY   65  56  72 W15G23    29.85R
WEST BEND      CLOUDY    63  55  77 W12       29.88R
JUNEAU         CLOUDY    62  58  86 W8        29.90R
$$

LSZ147-162-271500-
LAKE SUPERIOR

STATION/POSITION TIME  TEMP    WIND        PRES    WAVE
                       AIR SEA DIR/SP/G            HT/PER
                 (UTC) (F)     (DEG/KT/KT) (MB)    (FT/S)
W MID LAKE BUOY  1350   41 37  230/ 12/ 12 1088.0R   1/ 3
DEVILS ISLAND    1400   55     230/ 15/ 17   N/A
PORT WING        1300   60     180/  5/  8   N/A
$$

LMZ867-665-643>646-271500-
LAKE MICHIGAN

STATION/POSITION TIME  TEMP    WIND        PRES    WAVE
                       AIR SEA DIR/SP/G            HT/PER
                 (UTC) (F)     (DEG/KT/KT) (MB)    (FT/S)
CHAMBERS ISLAND  1300   56     270/  3/  9 1085.0R
N MID LAKE BUOY  1350   44 37  220/  8/  8 1087.0R   4/ 6
NORTHPORT PIER   1300   55     300/  4/  9 1081.0R
SISTER BAY       1318   55     360/  9/  9   N/A
ALGOMA LAKESHORE 1338          260/  8/ 15   N/A
KEWAUNEE LAKESHO 1300   61     270/ 12/ 17 1084.0R
SHEBOYGAN LAKESH 1400   65     260/ 10/ 14   N/A
PORT WASHINGTON  1340   66     250/ 10/ 18   N/A
ATWATER BUOY     1400   61 46  240/ 12/ 14   N/A
MILWAUKEE LAKESH 1400   64     260/ 11/ 14   N/A
S MID LAKE BUOY  1350   47 38  210/ 14/ 16   N/A     1/ 3
KENOSHA   LAKESH 1400   67     220/ 13/ 17   N/A
$$

TC  - TEMPERATURE IN CELSIUS
VSB - VISIBILITY IN STATUTE MILES
WCI - WIND CHILL INDEX
HX  - HEAT INDEX



USA.gov is the U.S. government's official web portal to all federal, state and local government web resources and services.